CGJBF CYVO-CYUY

Flight info

Callsign CGJBF
Flight time 0h 40m
Altitude 7500
Route YVO/N0254F100 DCT YUY/N0253F090
Aircraft TBM8/L-SDFGRWY/S

Departure

Time 2026-05-08 22:38
Airport Val-d'Or Airport (CYVO)

Arrival

Time 2026-05-08 23:18
Airport Rouyn Noranda Airport (CYUY)
Time Latitude Longitude Altitude Speed Heading
2026-05-08 22:34 48.05312 -77.78559 1101 ft 0 kts 93°
2026-05-08 22:34 48.05314 -77.78486 1099 ft 14 kts 85°
2026-05-08 22:35 48.05316 -77.78442 1103 ft 0 kts 88°
2026-05-08 22:36 48.05322 -77.78376 1102 ft 14 kts 82°
2026-05-08 22:37 48.05287 -77.78243 1103 ft 19 kts 172°
2026-05-08 22:37 48.05047 -77.78183 1106 ft 60 kts 171°
2026-05-08 22:37 48.04485 -77.77995 1185 ft 98 kts 173°
2026-05-08 22:37 48.03763 -77.77750 1451 ft 114 kts 180°
2026-05-08 22:38 48.02938 -77.78015 1646 ft 135 kts 208°
2026-05-08 22:38 48.02463 -77.79139 2176 ft 130 kts 255°
2026-05-08 22:38 48.02205 -77.80375 2827 ft 119 kts 250°
2026-05-08 22:38 48.01927 -77.81531 3388 ft 120 kts 250°
2026-05-08 22:39 48.01632 -77.82701 3886 ft 121 kts 249°
2026-05-08 22:39 48.01344 -77.83867 4421 ft 119 kts 249°
2026-05-08 22:39 48.01050 -77.85041 4900 ft 121 kts 249°
2026-05-08 22:39 48.00752 -77.86200 5388 ft 122 kts 249°
2026-05-08 22:40 48.00450 -77.87388 5910 ft 121 kts 249°
2026-05-08 22:40 48.00140 -77.88603 6276 ft 132 kts 249°
2026-05-08 22:40 47.99789 -77.89992 6438 ft 153 kts 249°
2026-05-08 22:40 47.99395 -77.91568 6504 ft 170 kts 249°
2026-05-08 22:41 47.98971 -77.93255 6531 ft 181 kts 249°
2026-05-08 22:41 47.98511 -77.95066 6545 ft 192 kts 249°
2026-05-08 22:41 47.98023 -77.96975 6548 ft 199 kts 249°
2026-05-08 22:41 47.97520 -77.98936 6541 ft 204 kts 249°
2026-05-08 22:42 47.97009 -78.00922 6546 ft 206 kts 249°
2026-05-08 22:42 47.96496 -78.02907 6538 ft 208 kts 249°
2026-05-08 22:42 47.95979 -78.04923 6539 ft 208 kts 249°
2026-05-08 22:42 47.95459 -78.06941 6533 ft 209 kts 249°
2026-05-08 22:43 47.94938 -78.08970 6522 ft 209 kts 249°
2026-05-08 22:43 47.94420 -78.10999 6531 ft 209 kts 249°
2026-05-08 22:43 47.93900 -78.13034 6525 ft 210 kts 249°
2026-05-08 22:43 47.93389 -78.15041 6526 ft 209 kts 249°
2026-05-08 22:44 47.92871 -78.17074 6523 ft 209 kts 249°
2026-05-08 22:44 47.92356 -78.19101 6526 ft 209 kts 249°
2026-05-08 22:44 47.91845 -78.21115 6531 ft 209 kts 249°
2026-05-08 22:44 47.91328 -78.23144 6537 ft 209 kts 249°
2026-05-08 22:45 47.90814 -78.25172 6531 ft 209 kts 249°
2026-05-08 22:45 47.90300 -78.27206 6536 ft 209 kts 249°
2026-05-08 22:45 47.89793 -78.29208 6536 ft 209 kts 249°
2026-05-08 22:45 47.89282 -78.31231 6537 ft 209 kts 249°
2026-05-08 22:46 47.88771 -78.33258 6524 ft 208 kts 249°
2026-05-08 22:46 47.88439 -78.34567 6526 ft 207 kts 249°
2026-05-08 22:46 47.87928 -78.36579 6537 ft 208 kts 249°
2026-05-08 22:46 47.87416 -78.38606 6533 ft 208 kts 249°
2026-05-08 22:47 47.86912 -78.40603 6526 ft 208 kts 249°
2026-05-08 22:47 47.86399 -78.42621 6531 ft 208 kts 249°
2026-05-08 22:47 47.85905 -78.44645 6528 ft 208 kts 251°
2026-05-08 22:47 47.85462 -78.46701 6523 ft 208 kts 252°
2026-05-08 22:48 47.85045 -78.48764 6524 ft 207 kts 254°
2026-05-08 22:48 47.84697 -78.50819 6523 ft 207 kts 256°
2026-05-08 22:48 47.84375 -78.52919 6522 ft 207 kts 256°
2026-05-08 22:48 47.84072 -78.55021 6521 ft 206 kts 257°
2026-05-08 22:49 47.83792 -78.57093 6523 ft 206 kts 258°
2026-05-08 22:49 47.82690 -78.60977 6504 ft 205 kts 242°
2026-05-08 22:49 47.81999 -78.62840 6518 ft 205 kts 244°
2026-05-08 22:50 47.81336 -78.64730 6475 ft 206 kts 244°
2026-05-08 22:50 47.80703 -78.66639 6494 ft 205 kts 246°
2026-05-08 22:50 47.80097 -78.68545 6428 ft 207 kts 245°
2026-05-08 22:50 47.79485 -78.70487 6383 ft 207 kts 247°
2026-05-08 22:51 47.78894 -78.72474 6375 ft 213 kts 248°
2026-05-08 22:51 47.78319 -78.74542 6418 ft 217 kts 250°
2026-05-08 22:51 47.77811 -78.76667 6480 ft 218 kts 253°
2026-05-08 22:51 47.77425 -78.78816 6583 ft 217 kts 258°
2026-05-08 22:52 47.77141 -78.81042 6564 ft 222 kts 260°
2026-05-08 22:52 47.76884 -78.83334 6480 ft 225 kts 259°
2026-05-08 22:52 47.76600 -78.85630 6406 ft 228 kts 261°
2026-05-08 22:52 47.76398 -78.87942 6356 ft 228 kts 264°
2026-05-08 22:53 47.76274 -78.90294 6368 ft 226 kts 267°
2026-05-08 22:53 47.76222 -78.92649 6298 ft 229 kts 269°
2026-05-08 22:53 47.76260 -78.95031 6224 ft 230 kts 272°
2026-05-08 22:53 47.76350 -78.97359 6260 ft 228 kts 274°
2026-05-08 22:54 47.76529 -78.99737 6166 ft 232 kts 277°
2026-05-08 22:54 47.76800 -79.02096 6221 ft 230 kts 281°
2026-05-08 22:54 47.77175 -79.04403 6211 ft 232 kts 284°
2026-05-08 22:54 47.77575 -79.06733 6129 ft 234 kts 281°
2026-05-08 22:55 47.77865 -79.09112 6158 ft 231 kts 279°
2026-05-08 22:55 47.78152 -79.11455 6223 ft 230 kts 279°
2026-05-08 22:55 47.78517 -79.13791 6166 ft 233 kts 284°
2026-05-08 22:55 47.79022 -79.16049 6225 ft 233 kts 290°
2026-05-08 22:56 47.79734 -79.18241 6163 ft 237 kts 298°
2026-05-08 22:56 47.80643 -79.20304 6123 ft 239 kts 303°
2026-05-08 22:56 47.81640 -79.22304 6110 ft 239 kts 306°
2026-05-08 22:56 47.82672 -79.24208 6096 ft 238 kts 304°
2026-05-08 22:57 47.83551 -79.26260 6220 ft 230 kts 296°
2026-05-08 22:57 47.84172 -79.28432 6374 ft 226 kts 289°
2026-05-08 22:57 47.84821 -79.30581 6451 ft 229 kts 296°
2026-05-08 22:57 47.85650 -79.32602 6486 ft 232 kts 302°
2026-05-08 22:58 47.86633 -79.34525 6500 ft 234 kts 307°
2026-05-08 22:58 47.87708 -79.36356 6496 ft 236 kts 310°
2026-05-08 22:58 47.88859 -79.38111 6507 ft 238 kts 313°
2026-05-08 22:58 47.90064 -79.39782 6509 ft 240 kts 315°
2026-05-08 22:59 47.91337 -79.41399 6510 ft 241 kts 318°
2026-05-08 22:59 47.92661 -79.42946 6505 ft 242 kts 320°
2026-05-08 22:59 47.94032 -79.44418 6504 ft 243 kts 323°
2026-05-08 22:59 47.95447 -79.45806 6512 ft 244 kts 324°
2026-05-08 23:00 47.96901 -79.47120 6517 ft 245 kts 327°
2026-05-08 23:00 47.98384 -79.48327 6517 ft 246 kts 329°
2026-05-08 23:00 47.99925 -79.49458 6508 ft 247 kts 332°
2026-05-08 23:00 48.01501 -79.50502 6504 ft 247 kts 334°
2026-05-08 23:01 48.03104 -79.51449 6500 ft 248 kts 336°
2026-05-08 23:01 48.04744 -79.52304 6494 ft 250 kts 339°
2026-05-08 23:01 48.06399 -79.53046 6490 ft 252 kts 341°
2026-05-08 23:01 48.08108 -79.53695 6493 ft 254 kts 344°
2026-05-08 23:02 48.09842 -79.54235 6494 ft 255 kts 346°
2026-05-08 23:02 48.11607 -79.54674 6509 ft 256 kts 349°
2026-05-08 23:02 48.13380 -79.55005 6500 ft 258 kts 352°
2026-05-08 23:02 48.15155 -79.55198 6499 ft 259 kts 354°
2026-05-08 23:03 48.16957 -79.55279 6504 ft 259 kts 356°
2026-05-08 23:03 48.18766 -79.55247 6494 ft 260 kts 359°
2026-05-08 23:03 48.20582 -79.55100 6493 ft 261 kts
2026-05-08 23:03 48.22396 -79.54836 6493 ft 261 kts
2026-05-08 23:04 48.24178 -79.54454 6493 ft 262 kts
2026-05-08 23:04 48.25985 -79.53943 6493 ft 263 kts
2026-05-08 23:04 48.27770 -79.53309 6489 ft 261 kts 13°
2026-05-08 23:04 48.29492 -79.52573 6488 ft 259 kts 15°
2026-05-08 23:05 48.31200 -79.51735 6486 ft 257 kts 17°
2026-05-08 23:05 48.32878 -79.50790 6484 ft 257 kts 20°
2026-05-08 23:05 48.34527 -79.49735 6494 ft 258 kts 22°
2026-05-08 23:05 48.36152 -79.48556 6493 ft 260 kts 26°
2026-05-08 23:06 48.37732 -79.47273 6496 ft 261 kts 28°
2026-05-08 23:06 48.39295 -79.45867 6487 ft 262 kts 31°
2026-05-08 23:06 48.40821 -79.44355 6489 ft 262 kts 34°
2026-05-08 23:06 48.42302 -79.42731 6487 ft 263 kts 36°
2026-05-08 23:07 48.43730 -79.41017 6489 ft 263 kts 39°
2026-05-08 23:07 48.45111 -79.39205 6486 ft 263 kts 42°
2026-05-08 23:07 48.46422 -79.37323 6488 ft 264 kts 45°
2026-05-08 23:07 48.47700 -79.35322 6487 ft 264 kts 47°
2026-05-08 23:08 48.48912 -79.33235 6488 ft 264 kts 50°
2026-05-08 23:08 48.50049 -79.31088 6493 ft 265 kts 53°
2026-05-08 23:08 48.51137 -79.28837 6496 ft 265 kts 56°
2026-05-08 23:08 48.52156 -79.26512 6503 ft 265 kts 58°
2026-05-08 23:09 48.53097 -79.24143 6500 ft 265 kts 61°
2026-05-08 23:09 48.53973 -79.21684 6499 ft 265 kts 64°
2026-05-08 23:09 48.54775 -79.19171 6505 ft 265 kts 67°
2026-05-08 23:09 48.55501 -79.16603 6503 ft 265 kts 70°
2026-05-08 23:10 48.56149 -79.13984 6504 ft 265 kts 72°
2026-05-08 23:10 48.56709 -79.11360 6506 ft 265 kts 75°
2026-05-08 23:10 48.57192 -79.08680 6504 ft 264 kts 78°
2026-05-08 23:10 48.57598 -79.05974 6507 ft 263 kts 81°
2026-05-08 23:11 48.57921 -79.03255 6502 ft 262 kts 84°
2026-05-08 23:11 48.58162 -79.00529 6501 ft 262 kts 86°
2026-05-08 23:11 48.58165 -78.97836 6521 ft 259 kts 106°
2026-05-08 23:11 48.57369 -78.95479 6539 ft 251 kts 136°
2026-05-08 23:12 48.56039 -78.93833 6535 ft 245 kts 155°
2026-05-08 23:12 48.54459 -78.92989 6527 ft 239 kts 175°
2026-05-08 23:12 48.52814 -78.92610 6505 ft 240 kts 176°
2026-05-08 23:12 48.51184 -78.92165 6491 ft 240 kts 175°
2026-05-08 23:13 48.49537 -78.91705 6490 ft 240 kts 175°
2026-05-08 23:13 48.47892 -78.91254 6497 ft 240 kts 175°
2026-05-08 23:13 48.46247 -78.90806 6493 ft 240 kts 175°
2026-05-08 23:13 48.44601 -78.90357 6493 ft 240 kts 175°
2026-05-08 23:14 48.42974 -78.89914 6489 ft 240 kts 175°
2026-05-08 23:14 48.41330 -78.89467 6493 ft 240 kts 175°
2026-05-08 23:14 48.39689 -78.89019 6499 ft 240 kts 175°
2026-05-08 23:14 48.38014 -78.88575 6277 ft 247 kts 175°
2026-05-08 23:15 48.36298 -78.88135 6006 ft 251 kts 175°
2026-05-08 23:15 48.34566 -78.87686 5721 ft 252 kts 175°
2026-05-08 23:15 48.32853 -78.87229 5448 ft 253 kts 175°
2026-05-08 23:15 48.31112 -78.86757 5178 ft 253 kts 174°
2026-05-08 23:16 48.29402 -78.86293 4912 ft 252 kts 175°
2026-05-08 23:16 48.27673 -78.85856 4258 ft 249 kts 176°
2026-05-08 23:16 48.25952 -78.85391 3520 ft 244 kts 169°
2026-05-08 23:16 48.24716 -78.84205 2959 ft 193 kts 139°
2026-05-08 23:17 48.23916 -78.82803 2272 ft 160 kts 137°
2026-05-08 23:17 48.23264 -78.81669 1877 ft 129 kts 139°
2026-05-08 23:17 48.22745 -78.80806 1626 ft 92 kts 152°
2026-05-08 23:17 48.22161 -78.80839 1403 ft 92 kts 204°
2026-05-08 23:18 48.21568 -78.81296 1228 ft 97 kts 217°
2026-05-08 23:18 48.21164 -78.81939 1053 ft 73 kts 243°
2026-05-08 23:18 48.20940 -78.82591 987 ft 66 kts 243°
2026-05-08 23:18 48.20855 -78.82861 988 ft 9 kts 279°
2026-05-08 23:19 48.20903 -78.82769 984 ft 19 kts 45°
2026-05-08 23:19 48.20986 -78.82787 985 ft 6 kts 338°
2026-05-08 23:19 48.20995 -78.82794 990 ft 5 kts 332°
2026-05-08 23:19 48.21054 -78.82840 991 ft 12 kts 335°
2026-05-08 23:20 48.21092 -78.82867 991 ft 0 kts 334°
2026-05-08 23:20 48.21156 -78.82933 988 ft 11 kts 328°
2026-05-08 23:21 48.21162 -78.82938 988 ft 0 kts 329°